Lapse_Rate
6.5 6.5 6.5 6.5 6.5 6.5 6.5 6.5 6.5 6.5 6.5 6.5 6.5 6.5 6.8 7.2 7.4 7.2 7.1 6.3 6.3 6.4 6.3 5.6 5.0 5.1 4.4 4.2 4.1 4.0 3.9 4.6 5.2 5.7 5.8 6.0 6.1 6.7 6.5 6.9 7.2 7.0 8.6 8.5
6.5 6.5 6.5 6.5 6.5 6.5 6.5 6.5 6.5 6.5 6.5 6.5 6.8 7.1 7.0 7.1 7.3 7.3 7.4 7.3 6.9 6.4 5.7 5.2 5.2 4.9 4.1 4.3 4.2 4.4 4.6 4.9 5.5 5.8 6.2 6.5 6.8 6.7 6.8 6.6 6.8 7.7 8.6 8.5
6.5 6.5 6.5 6.5 6.5 6.5 6.5 6.5 6.5 6.5 6.5 6.5 6.5 6.6 6.9 7.2 7.3 7.4 7.5 7.0 6.4 5.7 5.3 4.7 4.8 4.2 4.0 4.0 4.4 4.7 4.9 5.3 5.7 6.1 6.5 6.9 7.4 8.0 7.8 8.2 8.6 8.8 9.0 8.6
6.5 6.5 6.5 6.5 6.5 6.5 6.5 6.5 6.5 6.5 6.5 6.6 6.7 7.1 7.2 7.7 7.5 7.3 6.8 6.2 5.5 5.1 4.3 4.2 4.0 3.8 4.0 4.3 4.3 4.4 5.2 5.8 6.4 6.5 7.3 8.3 8.8 9.1 8.8 9.1 9.1 9.3 9.2 9.1
6.5 6.5 6.5 6.5 6.5 6.5 6.5 6.5 6.5 6.5 6.5 6.8 7.2 7.2 7.1 7.5 6.6 6.3 5.8 5.1 4.5 4.0 3.9 3.4 3.2 3.3 4.0 4.2 4.4 5.0 5.6 6.4 7.2 7.3 7.7 8.9 9.0 9.1 9.1 9.1 9.2 9.4 9.0 9.5
6.5 6.5 6.5 6.5 6.5 6.7 6.5 6.5 6.5 6.6 6.5 6.6 7.0 6.5 6.5 5.6 4.6 3.9 4.0 3.7 3.5 3.4 3.0 3.0 2.8 3.7 4.2 4.1 4.9 5.4 5.8 6.6 7.4 7.7 7.6 9.0 9.1 9.1 9.4 9.4 9.4 9.6 8.9 9.6
6.5 6.5 6.5 6.5 6.6 6.5 6.5 6.5 6.8 6.8 6.9 6.9 6.5 6.1 6.4 4.3 3.9 3.8 3.5 3.3 3.2 2.8 2.5 2.6 3.4 4.0 4.1 4.7 5.1 5.7 6.2 7.0 7.0 7.4 7.8 9.2 9.2 9.3 9.4 9.5 9.4 9.3 9.0 9.5
6.5 6.5 6.5 6.7 6.5 6.5 6.6 6.4 6.2 6.4 7.1 5.6 3.9 5.1 4.7 4.4 3.7 3.7 3.5 3.2 2.8 2.8 2.9 3.4 3.7 4.4 4.4 4.6 5.1 5.8 6.2 6.5 6.8 7.2 7.7 8.8 9.1 9.2 9.2 9.3 9.2 9.0 8.9 9.1
6.5 6.5 6.6 5.9 6.4 4.0 4.2 5.1 5.5 6.0 5.2 3.3 4.3 4.9 4.7 4.3 4.3 3.9 3.1 2.9 3.1 3.5 3.9 4.0 4.2 4.2 4.6 4.7 5.2 5.5 5.9 6.0 6.2 6.6 7.2 7.5 8.1 8.2 8.0 8.9 9.0 8.7 8.9 8.8
6.5 6.5 6.5 6.6 4.9 4.0 3.6 3.7 4.3 4.0 3.9 3.5 3.9 5.0 4.5 4.4 3.7 3.2 3.2 3.2 3.4 4.0 4.2 4.2 4.4 4.4 4.7 4.8 4.9 5.2 4.9 4.0 4.8 4.4 5.4 6.0 7.2 7.8 7.7 8.6 8.7 8.7 8.7 8.8
6.5 6.5 6.8 6.6 5.4 4.3 3.7 3.5 4.0 4.6 3.7 3.3 3.2 4.4 3.9 3.6 3.4 3.3 3.5 3.4 4.1 4.6 4.6 4.4 4.7 4.6 4.3 4.2 4.6 5.0 4.8 4.3 4.5 5.0 5.1 5.3 6.3 7.4 7.6 8.2 8.4 8.5 8.7 8.8
6.5 6.6 6.5 6.7 4.8 4.3 4.1 4.0 3.5 2.9 3.7 4.1 3.7 3.2 3.6 3.5 3.4 3.3 3.3 3.8 4.3 4.8 4.8 4.4 4.5 4.3 4.0 4.1 4.3 4.4 5.1 5.3 5.1 5.1 5.1 5.5 6.2 6.2 7.5 7.6 7.9 8.1 8.3 8.6
6.4 6.0 4.9 4.4 4.7 5.1 3.7 3.7 3.9 3.5 3.3 2.8 3.2 3.2 3.4 2.7 2.8 3.1 3.3 3.7 4.1 3.8 3.9 4.1 3.9 3.6 3.2 3.1 4.0 4.6 4.5 5.0 5.4 5.1 5.3 5.6 6.1 6.7 7.4 7.6 7.0 7.1 7.1 7.3
3.8 4.3 7.0 6.3 6.3 4.5 3.4 3.7 3.3 3.2 3.4 3.2 3.0 3.4 2.7 2.3 1.1 0.8 1.2 1.4 2.1 2.4 1.3 1.0 1.2 1.1 0.2 1.2 2.2 2.9 4.2 3.8 5.0 5.2 5.3 5.9 6.2 6.6 7.3 8.4 7.5 7.4 6.5 6.9
5.8 3.9 4.6 3.8 3.8 3.5 2.9 3.0 3.6 3.6 3.1 2.8 3.2 2.6 2.4 1.0 0.1 -0.1 -1.4 -1.1 0.1 -0.3 -0.9 0.0 0.3 1.3 0.4 0.1 2.2 3.3 4.6 5.0 4.7 5.2 5.6 5.3 6.0 6.7 7.1 8.5 8.4 8.1 7.6 6.5
3.4 2.9 4.0 3.5 3.6 3.6 3.8 4.5 3.7 3.4 3.4 2.9 2.9 2.7 2.3 1.6 1.0 -0.2 -1.0 -0.5 3.2 3.5 0.2 -0.5 0.7 1.0 0.7 1.2 3.1 4.8 5.1 4.2 4.2 5.6 5.7 5.7 6.0 6.4 6.7 7.8 8.4 8.5 8.5 7.2
5.5 7.0 5.8 4.9 4.3 3.8 4.0 4.3 3.6 2.8 3.1 3.1 2.8 2.3 2.1 2.2 1.5 0.2 -0.8 -1.1 0.5 1.0 0.1 0.4 1.6 0.9 2.0 2.7 4.2 5.4 5.5 5.6 3.5 5.9 5.9 5.9 6.1 6.3 6.6 7.3 8.4 8.1 8.1 7.1
4.1 2.6 3.5 2.7 3.5 4.1 3.8 3.5 3.2 3.0 2.9 2.7 1.2 -0.0 -0.3 0.4 1.4 0.1 -0.5 -1.6 -0.4 -0.0 1.2 1.6 1.8 3.0 3.6 4.1 4.7 5.3 5.4 5.4 5.5 5.5 5.8 5.8 5.7 6.2 6.4 7.0 8.3 7.8 7.0 6.7
3.0 2.5 3.1 3.4 3.2 3.2 3.3 3.3 3.1 2.3 0.7 -0.7 -0.9 -0.6 0.1 0.2 0.5 0.1 -1.2 0.3 1.5 3.2 3.5 3.4 4.6 4.2 4.9 4.8 4.9 5.3 5.2 5.0 5.6 5.8 5.5 5.3 6.0 6.1 6.3 6.8 7.0 7.3 7.0 6.8
2.3 2.6 2.5 2.5 2.7 2.8 2.5 2.0 0.4 -0.2 -0.9 -0.8 -1.7 -1.4 -0.6 -1.3 -0.6 -0.8 0.7 3.6 4.6 5.0 4.4 4.7 4.6 4.6 4.5 4.3 3.1 5.2 5.0 5.0 5.2 5.3 5.4 5.6 5.9 6.1 6.4 6.4 6.7 7.0 7.1 6.9
1.8 2.0 1.8 1.9 0.6 -0.6 -0.9 -1.3 -1.5 -1.6 -2.4 -2.0 -0.9 -1.1 -0.2 -0.8 -0.8 -0.3 1.8 5.4 4.6 3.3 4.6 4.1 5.0 5.1 4.9 3.8 4.5 4.7 4.7 5.0 5.0 4.9 5.0 5.2 5.6 6.2 6.4 6.5 6.8 7.3 7.1 7.0
-0.1 -0.5 -1.5 -1.7 -1.4 -2.6 -2.4 -1.4 -1.3 -2.6 -2.4 -2.5 -2.1 -1.3 -1.0 -0.7 -1.0 1.0 2.4 5.4 5.7 2.4 5.0 5.7 5.5 2.8 4.4 1.7 5.1 4.9 5.5 5.5 5.6 5.6 6.0 6.1 6.3 6.2 6.4 6.5 6.5 6.7 6.9 6.9
-2.1 -2.0 -2.4 -2.5 -2.2 -2.6 -3.0 -2.2 -2.1 -1.7 -2.4 -2.5 -2.0 -1.0 1.6 2.7 2.8 3.7 4.7 4.7 5.6 4.0 5.7 6.1 4.2 2.5 1.8 4.3 4.8 5.1 5.4 5.4 5.8 5.9 6.1 6.2 6.4 6.3 6.4 6.5 6.6 6.9 6.7 6.6
-3.0 -2.4 -3.6 -3.7 -3.6 -2.4 -2.1 -3.1 -1.6 -1.3 -1.3 -1.0 -0.3 0.0 2.1 3.1 3.4 4.6 4.7 2.2 3.5 4.4 5.6 5.7 4.5 3.6 1.7 4.8 4.9 5.4 5.5 6.0 5.9 6.2 6.3 3.9 6.2 5.9 6.3 5.7 6.0 6.4 6.3 6.2
-2.7 -3.2 -3.2 -2.3 -0.9 0.3 -1.2 -2.0 -2.2 -1.7 -1.3 1.2 0.9 0.6 2.1 4.7 6.0 5.7 4.9 5.1 3.7 4.1 6.2 3.0 3.7 4.1 4.8 5.0 4.9 5.0 5.5 5.8 6.0 6.0 6.1 5.8 5.9 5.6 5.5 5.3 4.9 5.2 5.3 5.8
-1.5 -0.6 -0.4 -0.0 0.8 0.2 -0.3 -0.2 0.8 0.5 1.3 1.7 2.1 2.4 2.8 3.3 3.8 4.4 4.3 3.9 5.1 4.3 6.1 6.1 5.0 4.5 4.7 4.8 4.9 4.9 5.0 5.3 5.0 5.3 4.9 5.1 4.9 4.9 4.5 4.3 4.1 4.1 4.1 4.2
-0.8 -0.9 -0.2 -0.0 0.2 0.6 0.7 1.1 1.1 0.9 1.5 2.8 3.7 2.7 3.6 3.4 3.9 4.0 3.6 5.1 5.2 5.3 5.6 5.5 4.8 4.0 4.7 4.5 4.3 4.0 3.7 3.7 1.6 2.7 2.6 2.6 2.6 3.1 3.3 3.0 2.8 2.5 2.3 2.0
Wind_Speed
8 9 5 5 9 14 16 20 12 16 16 11 14 14 16 15 14 15 14 12 10 8 6 4 4 3 5 6 8 10 10 10 10 11 11 12 13 13 14 14 14 14 14 14
6 15 13 7 10 14 17 15 13 15 17 7 6 7 12 15 17 16 15 13 11 8 6 5 3 4 5 7 8 9 9 10 10 11 12 13 13 14 14 14 14 15 14 14
10 6 5 5 19 9 8 9 8 11 14 7 5 10 14 16 18 17 15 13 11 9 7 5 4 5 6 7 8 8 9 10 11 12 13 13 14 15 15 15 15 15 15 14
1 5 7 7 4 9 15 9 12 3 3 5 2 5 7 12 16 15 14 12 10 8 7 5 5 6 6 6 7 9 9 10 11 12 13 13 14 15 15 14 14 14 14 15
5 8 6 10 6 7 7 9 12 14 6 7 12 10 7 8 13 14 13 11 10 8 7 6 6 6 6 7 8 8 9 10 11 12 13 13 14 15 13 13 14 14 13 17
3 5 9 3 2 4 6 10 9 11 13 16 13 7 6 9 13 14 14 12 10 8 7 8 8 6 6 7 7 9 10 10 11 11 12 12 13 13 13 13 13 12 12 15
7 4 6 4 4 4 8 3 6 10 14 16 6 2 16 14 14 13 13 12 10 8 9 8 6 6 7 6 8 9 9 9 10 11 11 11 12 11 12 13 13 13 13 14
3 6 11 7 5 8 2 2 7 10 11 10 13 16 17 15 15 13 13 10 9 9 8 6 5 6 6 7 8 8 8 9 10 11 9 9 12 11 12 12 12 13 14 13
8 5 1 3 1 2 5 6 7 11 12 17 18 16 16 14 13 11 10 9 8 8 8 6 5 6 6 7 8 8 9 10 10 11 10 10 10 11 9 10 11 11 11 12
2 5 3 3 1 2 3 5 11 13 17 16 17 17 15 13 11 9 8 8 8 8 7 6 5 6 6 7 8 7 8 8 9 9 11 10 8 8 8 8 9 10 10 10
3 3 2 3 4 8 12 13 16 14 14 16 18 15 15 12 11 9 9 8 7 7 6 5 5 5 6 7 7 7 7 8 9 8 9 9 8 7 7 8 10 9 10 10
5 10 4 5 10 13 15 15 15 18 13 12 15 15 14 11 10 9 9 9 8 7 6 5 4 5 6 7 7 7 8 7 7 7 7 7 8 8 11 13 14 16 17 14
3 11 3 14 15 11 15 14 13 15 15 16 12 13 13 12 9 11 10 9 8 7 6 5 5 5 6 7 6 7 6 7 6 7 7 7 7 7 8 9 12 14 17 18
16 16 10 12 8 12 16 14 16 14 12 13 14 12 11 11 10 8 8 7 7 7 6 5 5 5 4 5 5 5 5 6 5 6 6 6 6 7 7 7 9 9 13 16
8 5 10 16 16 15 15 16 16 14 13 12 11 12 12 12 10 8 7 6 6 6 4 3 4 4 4 4 4 5 6 6 6 5 5 6 6 7 7 8 8 9 10 12
10 14 17 19 17 16 17 15 16 13 12 12 11 11 11 11 10 9 7 6 5 5 3 3 3 3 3 3 3 4 5 6 5 5 5 6 6 7 7 8 8 9 9 10
18 11 14 15 17 17 17 13 13 14 13 12 12 12 13 12 10 8 6 4 5 5 3 2 2 2 2 2 3 4 4 5 5 5 5 6 6 7 7 7 8 8 9 9
8 12 17 20 17 15 13 12 13 14 13 13 12 10 10 10 10 9 7 5 4 4 3 2 1 0 1 3 3 3 4 4 4 5 5 6 6 6 6 7 8 8 9 9
12 15 14 15 15 14 14 13 12 12 11 11 11 10 9 7 10 9 7 5 4 5 3 2 1 1 1 3 2 3 4 4 4 4 5 5 5 6 6 7 7 8 9 9
13 13 15 14 13 15 13 10 12 10 9 10 9 9 9 7 9 8 6 6 4 3 5 2 1 1 1 2 2 2 3 4 4 4 4 5 5 6 6 7 7 7 8 8
14 14 14 13 10 8 8 10 11 10 9 10 11 11 10 9 8 8 7 5 5 5 5 3 2 1 1 1 1 1 2 3 3 4 4 5 6 6 7 7 7 7 8 8
9 10 10 10 10 8 7 8 9 10 10 8 6 8 8 8 7 7 2 2 4 5 4 4 3 2 1 1 0 1 2 3 3 3 4 4 5 6 6 6 6 7 8 8
8 9 10 10 11 10 8 7 8 10 10 8 9 10 10 7 7 8 6 7 4 5 4 4 4 4 3 2 2 2 3 3 3 3 4 4 4 4 5 5 6 7 7 8
8 8 7 8 10 10 10 6 7 7 6 7 7 7 8 6 4 3 2 3 4 5 4 3 4 4 3 3 3 3 4 4 4 5 5 5 4 4 4 4 5 6 7 8
8 8 8 10 9 7 9 10 8 7 7 6 6 6 5 4 3 6 4 4 4 4 4 4 6 5 3 3 3 4 4 4 5 5 6 6 5 4 4 4 5 6 7 7
10 7 7 6 6 7 7 8 7 7 7 6 5 5 4 4 3 3 4 4 4 4 4 3 3 3 3 4 4 4 4 4 5 5 6 5 4 3 3 5 5 6 7 9
6 7 6 5 4 6 7 7 7 7 7 7 7 6 6 5 4 4 4 4 4 3 3 3 3 3 3 3 2 2 3 3 4 4 3 3 3 3 4 6 8 10 11 11
Wind_Direction
259 295 289 260 230 202 207 227 204 235 227 237 213 206 206 196 179 166 161 159 168 164 157 123 89 59 57 25 7 357 356 351 344 342 346 345 346 345 344 345 344 341 343 342
268 239 211 197 226 220 221 236 244 249 252 210 218 175 174 186 175 167 164 164 158 146 128 104 74 58 45 15 3 357 354 349 347 346 347 347 347 347 346 345 345 343 343 342
243 191 185 255 236 194 204 215 219 227 245 163 177 204 199 181 172 164 157 153 149 137 126 102 78 63 35 11 1 0 355 352 350 348 348 349 347 348 348 346 343 344 344 344
203 189 226 241 195 227 217 215 205 245 210 175 160 109 137 172 157 146 146 142 134 133 115 99 87 54 28 17 11 4 357 352 350 350 349 349 348 350 347 347 343 344 345 349
177 202 306 270 200 174 168 242 201 221 156 129 124 99 67 122 134 139 135 128 126 118 117 95 66 43 29 21 12 2 357 351 351 350 349 350 351 348 347 345 344 345 346 349
154 203 211 239 202 150 123 258 192 174 166 158 157 163 153 131 119 114 118 124 126 122 103 77 54 41 33 23 10 2 354 349 348 351 350 351 349 347 345 345 343 345 345 350
176 198 277 223 156 169 175 244 159 168 166 167 171 55 136 130 118 119 123 126 123 99 80 69 58 43 38 22 12 354 350 349 352 354 350 351 348 347 344 344 345 347 346 348
171 200 247 163 125 194 157 78 139 144 152 124 118 121 127 128 127 129 130 124 107 94 86 75 62 42 38 25 1 355 356 359 357 356 353 352 349 347 346 348 348 346 349 347
190 202 195 171 101 110 151 144 153 146 140 135 131 134 136 135 137 133 122 111 108 108 102 78 62 45 35 16 2 0 8 5 360 358 353 351 349 347 345 348 350 350 351 348
140 219 165 189 144 120 116 122 139 142 138 140 138 143 140 140 137 127 124 124 121 116 98 79 61 49 30 11 3 5 9 1 358 357 353 351 348 351 347 350 346 355 353 349
247 253 120 215 190 139 111 114 118 129 139 139 137 143 144 141 136 133 131 128 127 117 104 88 71 47 26 14 7 9 7 1 1 357 355 347 351 351 350 358 356 359 359 352
211 179 177 161 142 137 135 138 136 129 125 136 140 141 143 140 140 138 136 135 128 121 113 95 73 43 27 15 14 13 5 2 358 353 353 355 350 346 1 10 7 10 4 7
166 144 73 126 131 141 132 136 135 131 136 133 134 139 141 136 135 140 136 133 127 116 107 93 56 50 28 16 14 18 7 357 355 358 356 354 353 350 343 359 2 9 6 4
125 113 97 141 149 135 129 122 114 113 121 131 135 132 132 132 130 131 133 127 121 120 107 80 67 56 17 11 17 14 4 5 2 358 354 352 352 350 349 354 354 353 359 356
138 79 130 121 120 120 125 128 126 130 133 131 137 138 142 142 143 141 136 134 121 117 107 76 55 34 15 11 13 12 9 4 355 355 359 354 354 356 356 355 356 353 351 358
104 115 131 133 140 142 139 143 139 146 145 144 143 145 142 138 135 139 147 151 138 133 121 79 54 9 347 360 2 14 7 1 353 357 0 2 0 1 1 358 358 356 356 357
121 130 132 144 154 154 161 157 155 153 151 151 148 141 139 141 136 140 143 139 126 134 135 116 31 341 339 22 16 13 1 358 355 3 5 3 1 0 0 358 359 355 354 357
159 158 168 156 153 153 153 149 149 153 157 152 141 136 140 153 157 156 149 144 138 148 153 119 298 347 39 33 24 15 7 359 359 2 356 3 0 0 359 358 358 356 354 357
131 134 136 145 149 148 148 150 153 147 138 138 141 153 155 149 149 148 146 141 151 159 158 110 12 76 46 29 31 19 13 3 0 3 353 352 359 1 359 357 356 357 356 358
113 119 125 129 137 144 142 140 136 131 134 133 125 135 148 151 147 150 160 165 164 143 145 143 182 137 68 54 27 18 9 1 359 359 358 350 353 351 349 347 349 350 352 353
126 130 130 132 121 104 120 135 134 141 146 150 155 161 162 159 160 152 164 180 174 176 171 175 197 150 118 21 330 9 358 349 354 350 346 346 341 347 347 342 341 347 348 349
133 130 128 128 131 125 130 135 135 140 149 144 125 134 137 156 168 191 225 196 157 166 183 196 193 169 186 240 274 300 315 333 333 332 340 338 337 340 343 344 343 342 342 343
121 129 130 135 141 139 126 130 141 149 150 154 155 162 170 170 174 173 195 194 187 177 197 205 188 195 194 226 248 272 285 290 297 303 301 303 309 318 326 330 333 336 338 339
121 122 116 114 122 129 140 152 144 144 141 152 161 164 161 161 172 186 122 143 171 183 210 212 213 218 214 247 255 268 276 286 289 288 284 272 281 290 306 322 326 331 330 332
121 121 130 140 148 151 138 146 133 138 145 158 160 173 187 179 170 186 181 181 183 196 221 209 222 235 240 253 264 275 288 294 293 294 290 284 279 284 299 314 321 327 326 326
143 148 153 154 151 149 149 157 160 163 162 165 171 172 168 165 160 142 174 185 197 206 229 231 232 238 250 255 264 286 302 311 315 313 315 308 304 306 317 323 324 325 323 320
115 128 136 127 144 153 162 168 163 173 179 174 174 177 179 177 184 183 182 191 206 218 231 237 247 258 269 278 298 326 329 337 5 352 2 358 349 336 329 324 322 321 319 319